[[{"header":{"parameterUnit":"m.s-1","parameterCategory":1,"la1":30.2991,"la2":30.254,"lo1":-89.0895,"lo2":-89.0444,"dy":0.0017,"dx":0.0017,"nx":28,"ny":28,"refTime":"2023-08-31T03:00:00:Z","depth":0,"parameterNumber":2,"parameterNumberName":"U-component_of_WINDS"},"data":[0,0,0,0,0,0,0,0,0,0,0,0,0,0,0,0,0,0,0,0,0,0,0,0,0,0,0,0,0,0,0,0,0,0,0,0,0,0,0,0,0,0,0,0,0,0,0,0,0,0,0,0,0,0,0,0,0,0,-2.2371,-2.2371,0,-2.2377,-2.2377,-2.2377,-2.2318,-2.2317,-2.2315,-2.2314,-2.2321,-2.2322,-2.2324,0,0,0,0,0,0,0,0,0,0,0,0,0,-2.231,-2.2312,-2.2371,-2.2371,-2.2371,-2.2377,-2.2377,-2.2377,-2.2319,-2.2317,-2.2315,-2.2313,-2.232,-2.2322,-2.2324,0,0,0,0,0,0,0,0,0,0,0,0,0,-2.2328,-2.2312,-2.2371,-2.2343,-2.234,-2.2377,-2.2377,-2.2377,-2.2319,-2.2317,-2.2314,-2.2312,-2.232,-2.2322,-2.2325,-2.2389,0,0,-2.2332,-2.2333,0,0,0,0,0,0,0,0,-2.2328,-2.2331,-2.2347,-2.2345,-2.2342,-2.2344,-2.2358,-2.2381,-2.232,-2.2327,-2.2314,-2.2311,-2.2331,-2.2332,-2.2339,-2.2389,-2.2389,-2.2333,-2.2334,-2.2335,-2.2336,0,0,0,0,0,0,0,-2.2326,-2.233,-2.2373,-2.2347,-2.2344,-2.233,-2.233,-2.2362,-2.2342,-2.2326,-2.2322,-2.2323,-2.2329,-2.2336,-2.2338,-2.239,-2.2333,-2.2335,-2.2336,-2.2337,-2.2494,-2.2496,0,0,0,0,0,0,-2.2329,-2.233,-2.2373,-2.2373,-2.2329,-2.2333,-2.2333,-2.2346,-2.2342,-2.2339,-2.2326,-2.2321,-2.2333,-2.2335,-2.2338,-2.2414,-2.2335,-2.2338,-2.2339,-2.2491,-2.2494,-2.2497,0,0,0,0,0,0,-2.2328,-2.2333,-2.2373,-2.235,-2.2354,-2.2337,-2.2352,-2.2347,-2.2355,-2.2341,-2.2338,-2.2337,-2.2331,-2.2335,-2.2377,-2.2414,-2.2339,-2.2341,-2.2488,-2.2492,-2.2496,-2.2566,0,0,0,0,0,0,-2.2326,-2.2333,-2.2357,-2.2351,-2.2356,-2.2411,-2.2354,-2.2349,-2.2359,-2.2353,-2.2351,-2.2348,-2.233,-2.2373,-2.2379,-2.2416,-2.2343,-2.2485,-2.249,-2.2495,-2.2561,-2.2572,-2.2582,0,0,0,0,0,-2.2324,-2.2377,-2.2359,-2.2364,-2.2385,-2.2413,-2.2416,-2.2393,-2.2362,-2.2387,-2.2378,-2.2348,-2.2408,-2.2378,-2.2384,-2.2422,-2.2482,-2.2488,-2.2494,-2.2556,-2.257,-2.2582,0,0,0,0,0,0,-2.2388,-2.2376,-2.2355,-2.2407,-2.2412,-2.2403,-2.2433,-2.2409,-2.2422,-2.2416,-2.2387,-2.2387,-2.2434,-2.2432,-2.2399,-2.2485,-2.244,-2.2447,-2.2485,-2.2498,-2.2508,-2.2509,-2.2345,0,0,0,0,0,-2.2408,-2.2431,-2.2419,-2.2466,-2.247,-2.2451,-2.2463,-2.2445,-2.2448,-2.245,-2.2444,-2.2449,-2.2469,-2.2483,-2.2501,-2.2559,-2.2559,-2.2588,-2.2599,-2.2608,-2.2615,-2.2647,-2.2661,-2.2517,-2.2517,-2.2517,0,0,-2.245,-2.2446,-2.2463,-2.2479,-2.248,-2.2506,-2.2453,-2.2482,-2.2501,-2.2454,-2.2494,-2.249,-2.2494,-2.2545,-2.2567,-2.2544,-2.2655,-2.2615,-2.2623,-2.2625,-2.2655,-2.2668,-2.2681,-2.2521,-2.252,-2.2519,0,0,-2.254,-2.2538,-2.2578,-2.258,-2.2583,-2.257,-2.258,-2.2575,-2.2571,-2.261,-2.2575,-2.2597,-2.2632,-2.2636,-2.2643,-2.2734,-2.2708,-2.2741,-2.2797,-2.2829,-2.284,-2.285,-2.2884,-2.2897,-2.2748,-2.2748,-2.2748,0,-2.2592,-2.2628,-2.2602,-2.2633,-2.2642,-2.26,-2.2641,-2.2644,-2.2653,-2.266,-2.2634,-2.2677,-2.2677,-2.2729,-2.2751,-2.2757,-2.2768,-2.2742,-2.2841,-2.285,-2.2859,-2.2891,-2.2904,-2.2752,-2.2751,-2.2751,-2.2751,0,-2.2693,-2.2719,-2.2751,-2.276,-2.2772,-2.2808,-2.2787,-2.2802,-2.2783,-2.2774,-2.2814,-2.2812,-2.2829,-2.2839,-2.2821,-2.2889,-2.2875,-2.2845,-2.28,-2.2878,-2.2907,-2.2919,-2.2758,-2.2756,-2.2755,-2.2754,0,0,-2.2824,-2.2818,-2.283,-2.2834,-2.2834,-2.2853,-2.2887,-2.2903,-2.2918,-2.2925,-2.2953,-2.2984,-2.2956,-2.2964,-2.2945,-2.2973,-2.3047,-2.294,-2.2939,-2.2961,-2.3123,-2.3147,-2.3162,-2.3029,-2.3031,-2.3032,-2.3124,0,-2.2913,-2.2971,-2.2948,-2.3008,-2.3032,-2.2993,-2.3022,-2.3026,-2.3017,-2.3037,-2.3027,-2.305,-2.3011,-2.3016,-2.3041,-2.3033,-2.3079,-2.3025,-2.3056,-2.3058,-2.3059,-2.3177,-2.3202,-2.3289,-2.3135,-2.3137,-2.3138,0,-2.3025,-2.3036,-2.3099,-2.3095,-2.3104,-2.3131,-2.3144,-2.3163,-2.3166,-2.3158,-2.3167,-2.3142,-2.3176,-2.3129,-2.3176,-2.314,-2.3151,-2.3148,-2.3151,-2.3155,-2.3104,-2.3186,-2.3315,-2.3329,-2.3156,-2.3155,-2.3153,0,-2.3117,-2.3147,-2.3189,-2.3193,-2.3189,-2.3209,-2.3208,-2.3209,-2.322,-2.3231,-2.3239,-2.3254,-2.3263,-2.3275,-2.3256,-2.3224,-2.3306,-2.3257,-2.3301,-2.3302,-2.3322,-2.3321,-2.3457,-2.3326,-2.3326,-2.3325,-2.3325,0,-2.3219,-2.326,-2.3231,-2.3257,-2.3301,-2.3273,-2.3318,-2.3313,-2.3313,-2.3338,-2.3304,-2.3328,-2.3299,-2.3321,-2.3305,-2.3347,-2.3351,-2.3346,-2.3342,-2.335,-2.3351,-2.3359,-2.3353,-2.3329,-2.3328,-2.3327,-2.3327,0,-2.333,-2.3312,-2.3355,-2.3347,-2.3346,-2.3379,-2.3373,-2.3397,-2.3385,-2.3417,-2.3423,-2.3405,-2.3429,-2.341,-2.3432,-2.3422,-2.3478,-2.3464,-2.3477,-2.3474,-2.352,-2.3516,-2.3666,-2.3685,-2.354,-2.3542,-2.3543,0,-2.3398,-2.3428,-2.3423,-2.3437,-2.3439,-2.3461,-2.3473,-2.3447,-2.346,-2.3465,-2.3489,-2.3509,-2.3524,-2.3564,-2.3553,-2.3571,-2.3558,-2.361,-2.3561,-2.3569,-2.3561,-2.3561,-2.3564,-2.362,-2.3622,-2.3623,-2.3625,0,-2.3521,-2.351,-2.3528,-2.3543,-2.3557,-2.3567,-2.3575,-2.3588,-2.3562,-2.3579,-2.3602,-2.3614,-2.3637,-2.3658,-2.3671,-2.3671,-2.3644,-2.364,-2.3651,-2.3661,-2.3668,-2.3667,-2.3506,-2.3637,-2.3636,-2.3635,-2.3634,-2.3634,-2.3614,-2.3639,-2.364,-2.366,-2.3663,-2.3671,-2.3694,-2.3685,-2.3704,-2.3721,-2.3704,-2.3733,-2.3735,-2.375,-2.3753,-2.3775,-2.3754,-2.377,-2.3774,-2.3779,-2.3787,-2.3663,-2.3777,-2.3777,-2.3777,-2.3776,-2.3776,0,-2.3736,-2.3735,-2.3754,-2.3766,-2.3782,-2.3754,-2.3761,-2.3777,-2.3803,-2.3807,-2.3822,-2.3849,-2.3869,-2.386,-2.3878,-2.3898,-2.3886,-2.3903,-2.3903,-2.3903,-2.3804,-2.3793,-2.3913,-2.3913,-2.3913,-2.3913,-2.3913,-2.3913,-2.3802,-2.3844,-2.3834,-2.3877,-2.3874,-2.3902,-2.3909,-2.3916,-2.3919,-2.3951,-2.3968,-2.3961,-2.396,-2.3978,-2.3995,-2.3992,-2.4001,-2.4023,-2.4016,-2.3924,-2.391,-2.3897,-2.3887,-2.4025,-2.4025,-2.4114,-2.4115,-2.4115]},{"header":{"parameterUnit":"m.s-1","parameterCategory":1,"la1":30.2991,"la2":30.254,"lo1":-89.0895,"lo2":-89.0444,"dy":0.0017,"dx":0.0017,"nx":28,"ny":28,"refTime":"2023-08-31T03:00:00:Z","depth":0,"parameterNumber":3,"parameterNumberName":"V-component_of_WINDS"},"data":[0,0,0,0,0,0,0,0,0,0,0,0,0,0,0,0,0,0,0,0,0,0,0,0,0,0,0,0,0,0,0,0,0,0,0,0,0,0,0,0,0,0,0,0,0,0,0,0,0,0,0,0,0,0,0,0,0,0,-3.9318,-3.9318,0,-3.9309,-3.9309,-3.9309,-3.9251,-3.925,-3.9248,-3.9247,-3.9238,-3.9239,-3.9241,0,0,0,0,0,0,0,0,0,0,0,0,0,-3.9284,-3.9285,-3.9318,-3.9318,-3.9317,-3.9309,-3.9309,-3.9309,-3.9251,-3.9249,-3.9248,-3.9246,-3.9238,-3.9239,-3.9241,0,0,0,0,0,0,0,0,0,0,0,0,0,-3.9289,-3.9285,-3.9318,-3.9288,-3.9285,-3.9309,-3.9309,-3.9309,-3.9252,-3.9249,-3.9247,-3.9245,-3.9238,-3.9239,-3.9241,-3.9294,0,0,-3.9246,-3.9247,0,0,0,0,0,0,0,0,-3.9289,-3.9291,-3.9292,-3.929,-3.9287,-3.9279,-3.9294,-3.9304,-3.9252,-3.9264,-3.9247,-3.9244,-3.9254,-3.9254,-3.9257,-3.9293,-3.9293,-3.9246,-3.9247,-3.9248,-3.9248,0,0,0,0,0,0,0,-3.9289,-3.9291,-3.9314,-3.9292,-3.9289,-3.9275,-3.9273,-3.9296,-3.9271,-3.9263,-3.9259,-3.9259,-3.9252,-3.9255,-3.9256,-3.9293,-3.9246,-3.9247,-3.9248,-3.9249,-3.9372,-3.9374,0,0,0,0,0,0,-3.9293,-3.9291,-3.9315,-3.9314,-3.9283,-3.9277,-3.9275,-3.9284,-3.9271,-3.9266,-3.926,-3.9256,-3.9254,-3.9254,-3.9256,-3.9317,-3.9248,-3.9249,-3.925,-3.937,-3.9373,-3.9375,0,0,0,0,0,0,-3.9292,-3.9295,-3.9315,-3.9301,-3.9303,-3.928,-3.929,-3.9285,-3.9288,-3.9269,-3.9264,-3.9269,-3.9252,-3.9253,-3.9285,-3.9316,-3.925,-3.9251,-3.9367,-3.9371,-3.9374,-3.944,0,0,0,0,0,0,-3.9291,-3.9295,-3.9315,-3.9302,-3.9304,-3.9344,-3.9292,-3.9286,-3.9291,-3.9285,-3.9275,-3.9271,-3.925,-3.9283,-3.9286,-3.9317,-3.9253,-3.9364,-3.9369,-3.9373,-3.9435,-3.9445,-3.9454,0,0,0,0,0,-3.929,-3.9334,-3.9316,-3.932,-3.9328,-3.9346,-3.9347,-3.9322,-3.9294,-3.9314,-3.9301,-3.9272,-3.9312,-3.9286,-3.929,-3.9322,-3.9362,-3.9367,-3.9372,-3.943,-3.9443,-3.9453,0,0,0,0,0,0,-3.9351,-3.9332,-3.9312,-3.9353,-3.9351,-3.9336,-3.936,-3.9336,-3.9342,-3.9336,-3.9305,-3.9303,-3.9339,-3.9333,-3.9305,-3.9372,-3.9332,-3.9338,-3.9375,-3.9386,-3.9396,-3.9397,-3.9254,0,0,0,0,0,-3.9369,-3.9386,-3.9368,-3.9405,-3.9406,-3.9383,-3.939,-3.9371,-3.9368,-3.9368,-3.9357,-3.9356,-3.9368,-3.9377,-3.9387,-3.9433,-3.9431,-3.9457,-3.9467,-3.9474,-3.948,-3.9505,-3.9516,-3.9392,-3.9392,-3.9392,0,0,-3.9407,-3.9398,-3.9411,-3.9417,-3.9414,-3.9432,-3.9383,-3.9404,-3.9417,-3.9371,-3.94,-3.9392,-3.9389,-3.9428,-3.9444,-3.9424,-3.9514,-3.9481,-3.9487,-3.9489,-3.9511,-3.9523,-3.9533,-3.9395,-3.9395,-3.9394,0,0,-3.9485,-3.948,-3.9511,-3.9509,-3.9504,-3.9489,-3.9497,-3.9485,-3.9478,-3.9507,-3.9473,-3.9488,-3.9509,-3.9508,-3.9511,-3.9589,-3.9562,-3.9593,-3.9643,-3.9667,-3.9677,-3.9685,-3.9714,-3.9724,-3.9599,-3.9599,-3.9599,0,-3.9532,-3.9557,-3.953,-3.9553,-3.9557,-3.9516,-3.9547,-3.9547,-3.9546,-3.955,-3.9527,-3.9553,-3.9548,-3.9587,-3.9606,-3.9609,-3.9617,-3.9594,-3.9678,-3.9686,-3.9694,-3.972,-3.9731,-3.9603,-3.9602,-3.9602,-3.9601,0,-3.9616,-3.9634,-3.966,-3.966,-3.9667,-3.9694,-3.9671,-3.9681,-3.9662,-3.9649,-3.9679,-3.9671,-3.9679,-3.9687,-3.9668,-3.9723,-3.9711,-3.9683,-3.9642,-3.971,-3.9734,-3.9744,-3.9608,-3.9607,-3.9606,-3.9605,0,0,-3.9732,-3.9717,-3.9727,-3.9727,-3.9719,-3.9733,-3.9758,-3.9766,-3.9776,-3.9777,-3.9798,-3.9817,-3.9792,-3.9795,-3.9775,-3.9796,-3.9859,-3.9766,-3.9766,-3.9784,-3.992,-3.9941,-3.9953,-3.9841,-3.9843,-3.9845,-3.992,0,-3.9807,-3.9849,-3.9825,-3.9871,-3.9888,-3.985,-3.9872,-3.987,-3.9859,-3.9871,-3.9859,-3.9873,-3.9839,-3.984,-3.9859,-3.9847,-3.9886,-3.9842,-3.9861,-3.9862,-3.9863,-3.9966,-3.9988,-4.0059,-3.993,-3.9931,-3.9932,0,-3.99,-3.9905,-3.9953,-3.9942,-3.9949,-3.9969,-3.9974,-3.9987,-3.9984,-3.9974,-3.9978,-3.9953,-3.9978,-3.9937,-3.9971,-3.9941,-3.9947,-3.9943,-3.9945,-3.9946,-3.9901,-3.997,-4.0082,-4.0093,-3.9947,-3.9946,-3.9945,0,-3.998,-3.9999,-4.003,-4.0031,-4.002,-4.0035,-4.0031,-4.0026,-4.0032,-4.0037,-4.0041,-4.0049,-4.0053,-4.006,-4.0038,-4.0011,-4.0075,-4.0032,-4.0068,-4.0068,-4.0083,-4.0082,-4.0198,-4.0087,-4.0087,-4.0087,-4.0086,0,-4.0066,-4.0097,-4.0066,-4.0085,-4.0119,-4.0091,-4.0125,-4.0117,-4.0112,-4.013,-4.0097,-4.0114,-4.0084,-4.0098,-4.0081,-4.0111,-4.0113,-4.0107,-4.0102,-4.011,-4.0111,-4.0114,-4.0108,-4.0089,-4.0089,-4.0088,-4.0088,0,-4.0161,-4.0142,-4.0173,-4.016,-4.0157,-4.0183,-4.0171,-4.0189,-4.0175,-4.0198,-4.0201,-4.0181,-4.0195,-4.0174,-4.0187,-4.0175,-4.0217,-4.0205,-4.0219,-4.0215,-4.0252,-4.0249,-4.0373,-4.0388,-4.0268,-4.0269,-4.027,0,-4.0218,-4.0241,-4.023,-4.0239,-4.0237,-4.0252,-4.0259,-4.0232,-4.024,-4.0239,-4.0257,-4.0269,-4.0277,-4.0302,-4.0288,-4.0298,-4.0285,-4.0328,-4.0286,-4.0294,-4.0286,-4.0285,-4.0288,-4.0337,-4.0338,-4.034,-4.0341,0,-4.0321,-4.031,-4.032,-4.0328,-4.0336,-4.0341,-4.0343,-4.0352,-4.0325,-4.0336,-4.035,-4.0357,-4.0369,-4.0382,-4.0388,-4.0383,-4.0358,-4.0354,-4.0363,-4.0371,-4.0378,-4.0375,-4.0242,-4.0351,-4.035,-4.0349,-4.0349,-4.0348,-4.0398,-4.0417,-4.0412,-4.0425,-4.0424,-4.0427,-4.0443,-4.0432,-4.0444,-4.0452,-4.0436,-4.0454,-4.0451,-4.0456,-4.0455,-4.047,-4.0451,-4.0464,-4.0467,-4.047,-4.0476,-4.0376,-4.0471,-4.047,-4.047,-4.047,-4.047,0,-4.0499,-4.0495,-4.0507,-4.0511,-4.0521,-4.0496,-4.0497,-4.0508,-4.0525,-4.0524,-4.0532,-4.055,-4.0561,-4.0549,-4.0558,-4.0573,-4.0561,-4.0576,-4.0575,-4.0574,-4.0492,-4.0484,-4.0585,-4.0585,-4.0585,-4.0585,-4.0585,-4.0585,-4.0553,-4.0584,-4.0572,-4.0602,-4.0597,-4.0615,-4.0618,-4.0621,-4.062,-4.064,-4.065,-4.0642,-4.0636,-4.0645,-4.0655,-4.0651,-4.0657,-4.0676,-4.0668,-4.0591,-4.058,-4.0569,-4.0561,-4.0677,-4.0677,-4.0749,-4.0749,-4.075]}]]